SCP
0 0 0 0 0 0 0 0 0 0 0 0 0 0 0 0 0 0 0 0 0 0
0 0 0 0 0 0 0 0 0 0 0 0 0 0 0 0 0 0 0 0 0 0
0 0 0 0 0 0 0 0 0 0 0 0 0 0 0 0 0 0 0 0 0 0
0 0 0 0 0 0 0 0 0 0 0 0 0 0 0 0 0 0 0 0 0 0
0 0 0 0 0 0 0 0 0 0 0 0 0 0 0 0 0 0 0 0 0 0
0 0 0 0 0 0 0 0 0 0 0 0 0 0 0 0 0 0 0 0 0 0
0 0 0 0 0 0 0 0 0 0 0 0 0 0 0 0 0 0 0 0 0 0
0 0 0 0 0 0 0 0 0 0 0 0 0 0 0 0 0 0 0 0 0 0
0 0 0 0 0 0 0 0 0 0 0 0 0 0 0 0 0 0 0 0 0 0
0 0 0 0 0 0 0 0 0 0 0 0 0 0 0 0 0 0 0 0 0 0
0 0 0 0 0 0 0 0 0 0 0 0 0 0 0 0 0 0 0 0 0 0
0 0 0 0 0 0 0 0 0 0 0 0 0 0 0 0 0 0 0 0 0 0
0 0 0 0 0 0 0 0 0 0 0 0 0 0 0 0 0 0 0 0 0 0
0 0 0 0 0 0 0 0 0 0 0 0 0 0 0 0 0 0 0 0 0 0
Wind_Speed_500mb
49 43 36 30 24 20 18 17 18 19 19 21 22 24 26 29 33 35 39 41 43 46
47 40 33 27 22 19 17 19 18 18 18 20 22 24 28 31 34 37 40 43 44 47
41 34 29 24 20 18 19 19 17 17 18 20 23 26 29 32 36 39 40 44 44 44
37 32 26 21 19 18 18 17 18 19 19 21 24 27 31 35 37 39 40 39 42 44
35 28 23 19 18 17 16 18 18 19 21 23 26 29 33 36 38 40 42 41 42 46
29 24 20 17 15 15 15 17 18 20 22 25 28 30 34 38 39 39 38 42 46 50
23 17 13 12 14 15 15 17 18 20 23 27 30 32 35 38 38 40 44 48 51 54
11 7 12 19 16 15 15 18 20 20 23 27 29 32 37 38 39 45 48 51 52 56
15 8 20 17 16 15 16 17 19 20 23 26 29 32 32 31 39 42 48 55 59 60
12 21 20 16 14 15 16 15 17 19 22 25 28 31 33 33 39 43 49 53 59 63
22 19 15 13 13 13 15 15 15 17 21 26 29 33 36 36 39 48 52 59 61 66
18 15 12 11 11 12 11 14 15 19 24 29 30 35 38 38 47 52 61 61 66 71
15 12 10 10 10 11 11 13 16 19 23 28 33 36 38 42 48 61 65 68 76 72
12 9 9 10 10 8 10 11 17 22 24 28 35 39 41 39 49 60 67 74 76 78
Wind_Direction_500mb
198 202 204 208 215 227 242 258 276 287 297 305 311 312 315 319 319 320 318 315 312 309
197 200 204 211 221 236 254 270 279 287 297 304 307 311 315 317 316 316 316 314 312 311
196 200 207 216 229 246 263 272 280 290 299 304 307 313 316 317 317 318 318 315 316 314
199 204 211 222 238 256 265 274 284 291 299 306 312 317 317 317 318 318 317 316 314 316
202 207 215 229 247 260 271 276 288 299 307 311 315 318 315 315 318 319 318 319 318 318
203 210 223 240 254 262 272 287 295 305 309 312 314 316 314 316 318 317 319 323 321 319
206 218 240 256 268 267 277 290 298 305 310 313 316 318 314 312 318 324 325 323 319 320
210 253 276 262 265 276 286 293 301 307 309 313 317 317 316 322 327 318 319 320 315 312
231 261 255 257 265 276 286 294 302 310 313 318 322 320 320 316 312 317 314 316 318 317
235 246 247 252 266 282 290 298 309 316 318 323 326 325 324 324 316 316 318 317 320 322
237 241 246 258 272 283 297 305 312 322 325 330 339 332 330 326 321 322 324 327 328 325
233 237 246 260 272 284 298 306 318 332 344 339 342 338 333 337 326 327 328 331 330 325
232 234 247 256 266 288 307 316 329 346 347 347 345 341 342 335 331 328 333 331 323 322
237 234 241 259 272 282 303 322 327 337 343 348 351 352 344 337 331 331 328 322 322 320
Wind_Speed_850mb
49 43 36 30 24 20 18 17 18 19 19 21 22 24 26 29 33 35 39 41 43 46
47 40 33 27 22 19 17 19 18 18 18 20 22 24 28 31 34 37 40 43 44 47
41 34 29 24 20 18 19 19 17 17 18 20 23 26 29 32 36 39 40 44 44 44
37 32 26 21 19 18 18 17 18 19 19 21 24 27 31 35 37 39 40 39 42 44
35 28 23 19 18 17 16 18 18 19 21 23 26 29 33 36 38 40 42 41 42 46
29 24 20 17 15 15 15 17 18 20 22 25 28 30 34 38 39 39 38 42 46 50
23 17 13 12 14 15 15 17 18 20 23 27 30 32 35 38 38 40 44 48 51 54
11 7 12 19 16 15 15 18 20 20 23 27 29 32 37 38 39 45 48 51 52 56
15 8 20 17 16 15 16 17 19 20 23 26 29 32 32 31 39 42 48 55 59 60
12 21 20 16 14 15 16 15 17 19 22 25 28 31 33 33 39 43 49 53 59 63
22 19 15 13 13 13 15 15 15 17 21 26 29 33 36 36 39 48 52 59 61 66
18 15 12 11 11 12 11 14 15 19 24 29 30 35 38 38 47 52 61 61 66 71
15 12 10 10 10 11 11 13 16 19 23 28 33 36 38 42 48 61 65 68 76 72
12 9 9 10 10 8 10 11 17 22 24 28 35 39 41 39 49 60 67 74 76 78
Wind_Direction_850mb
198 202 204 208 215 227 242 258 276 287 297 305 311 312 315 319 319 320 318 315 312 309
197 200 204 211 221 236 254 270 279 287 297 304 307 311 315 317 316 316 316 314 312 311
196 200 207 216 229 246 263 272 280 290 299 304 307 313 316 317 317 318 318 315 316 314
199 204 211 222 238 256 265 274 284 291 299 306 312 317 317 317 318 318 317 316 314 316
202 207 215 229 247 260 271 276 288 299 307 311 315 318 315 315 318 319 318 319 318 318
203 210 223 240 254 262 272 287 295 305 309 312 314 316 314 316 318 317 319 323 321 319
206 218 240 256 268 267 277 290 298 305 310 313 316 318 314 312 318 324 325 323 319 320
210 253 276 262 265 276 286 293 301 307 309 313 317 317 316 322 327 318 319 320 315 312
231 261 255 257 265 276 286 294 302 310 313 318 322 320 320 316 312 317 314 316 318 317
235 246 247 252 266 282 290 298 309 316 318 323 326 325 324 324 316 316 318 317 320 322
237 241 246 258 272 283 297 305 312 322 325 330 339 332 330 326 321 322 324 327 328 325
233 237 246 260 272 284 298 306 318 332 344 339 342 338 333 337 326 327 328 331 330 325
232 234 247 256 266 288 307 316 329 346 347 347 345 341 342 335 331 328 333 331 323 322
237 234 241 259 272 282 303 322 327 337 343 348 351 352 344 337 331 331 328 322 322 320